Regional Weather Roundup
Issued by NWS

Home | Current Version | Previous Version | Text Only | Print | Product List | Glossary On
Versions: 1 2 3 4 5 6 7 8 9 10 11 12 13 14 15 16 17 18 19 20 21 22 23 24 25 26 27
000
ASUS45 KTFX 260410
RWRMT
MONTANA REGIONAL WEATHER ROUNDUP
NATIONAL WEATHER SERVICE GREAT FALLS MT
900 PM MST SAT FEB 25 2017

NOTE: "FAIR" INDICATES FEW OR NO CLOUDS BELOW 12000 FEET WITH NO
SIGNIFICANT WEATHER AND/OR OBSTRUCTIONS TO VISIBILITY.

MTZ001>007-043-260500-
WEST OF THE DIVIDE

CITY           SKY/WX    TMP DP  RH WIND       PRES   REMARKS
KALISPELL      CLOUDY    27  17  66 SW7       29.82S WCI  19
MISSOULA       CLOUDY    27  16  63 SE5       29.86F
BUTTE          CLOUDY    19   4  51 W5        29.75F
MULLAN PASS    LGT SNOW  14  13  95 VRB7      29.70F FOG     WCI   4
ANACONDA         N/A     21   5  49 W6        29.78S WCI  14
DEER LODGE       N/A     25   5  42 SW5       29.80S
EUREKA           N/A     28  18  64 S9        29.82R WCI  20
HAMILTON         N/A     28  10  47 SE8       29.85S WCI  20
LIBBY            N/A     28  18  64 CALM      29.81S
PLAINS           N/A     30  16  56 SE1       29.87F
RONAN            N/A     27  17  65 CALM      29.89F
THOMPSON FALLS   N/A     28  20  72 SW1       29.92F
$$

MTZ008-052>055-260500-
SOUTHWEST MONTANA

CITY           SKY/WX    TMP DP  RH WIND       PRES   REMARKS
BOZEMAN        CLEAR     17   8  67 SE5       29.78S
DILLON         CLEAR     20   8  60 SW16      29.77S WCI   6
W YELLOWSTONE  CLOUDY     9   5  85 SW14G21   29.78R HAZE    WCI  -8
ENNIS          CLEAR     19   9  63 SE14      29.83R WCI   6
$$

MTZ009-010-012-014-046-048-049-054-260500-
EAST SLOPES AND CENTRAL MONTANA

CITY           SKY/WX    TMP DP  RH WIND       PRES   REMARKS
CUT BANK       CLOUDY    25  13  60 W35G45    29.56R WCI   7
GREAT FALLS    CLOUDY    24  10  55 SW15      29.63F WCI  11
MALMSTROM AFB  CLOUDY    26  12  54 SW17      29.65F WCI  13
HELENA         CLOUDY    28   8  43 SW12G24   29.76S WCI  18
AUGUSTA        CLOUDY    24   7  48 W35G45    29.59F WCI   6
BOWMANS CRNR   MOCLDY    23   9  56 W12       29.62F WCI  11
CHOTEAU          N/A     28   9  43 W16G26    29.60F WCI  17
CONRAD           N/A     28  16  61 SW10      29.64S WCI  19
POWER          MOCLDY    26   9  48 SW18G25   29.60F WCI  12
RAYNESFORD       N/A     25   9  49 W21G28    29.63F WCI  11
ULM            MOCLDY    27  11  50 MISG      29.66F
$$

MTZ011-013-016-021-045-047-050-051-260500-
NORTH CENTRAL MONTANA

CITY           SKY/WX    TMP DP  RH WIND       PRES   REMARKS
HAVRE          CLOUDY    30  19  63 W14       29.61R WCI  19
LEWISTOWN      CLOUDY    16   7  67 S10       29.62R WCI   4
N BAR RANCH      N/A     12   5  73 CALM      29.63S
CHINOOK          N/A     27  19  74 W3        29.61S
DENTON         MOCLDY    24  12  59 W17G29    29.60R WCI  11
FORT BENTON      N/A     28   9  43 MISG      29.65S
GEYSER         MOCLDY    24   9  53 W6        29.61S WCI  17
GRASS RANGE      N/A     23  11  60 W13       29.59R WCI  11
JUDITH GAP       N/A     11   3  68 E5        29.61S
ROY              N/A     24  13  65 MISG      29.61R
STANFORD         N/A     24   9  51 W14       29.61R WCI  12
WINIFRED         N/A     23  13  65 W15       29.60S WCI  10
$$

MTZ017>020-022>027-061-062-260500-
NORTHEAST MONTANA

CITY           SKY/WX    TMP DP  RH WIND       PRES   REMARKS
GLASGOW        CLOUDY    17  13  84 E13       29.65S WCI   4
JORDAN           N/A     24  19  81 W5        29.64S
SIDNEY         CLEAR     14  11  87 N3        29.71S
WOLF POINT     CLOUDY    14  10  84 NE6       29.70S WCI   5
PLENTYWOOD       N/A      7   3  85 NE6       29.67F WCI  -3
POPLAR           N/A     12   9  85 CALM      29.71S
SCOBEY           N/A      5  -3  69 CALM      29.66
$$

MTZ028>42-056>058-260500-
SOUTHCENTRAL AND SOUTHEAST MONTANA

CITY           SKY/WX    TMP DP  RH WIND       PRES   REMARKS
BAKER          CLOUDY    24  18  77 W12       29.66R WCI  13
BILLINGS       PTCLDY    25  14  63 W16       29.68S WCI  12
LIVINGSTON     PTCLDY    23   9  55 W17       29.71S WCI   9
MILES CITY     CLOUDY    27  20  75 SW7       29.68R WCI  19
BIG TIMBER     CLEAR     23  14  68 W38G45    29.66S HAZE    WCI   4
EKALAKA          N/A     21  14  74 SW7       29.65  WCI  12
FORSYTH          N/A     27  18  69 CALM      29.69R
HARLOWTON      MOCLDY    23  10  56 W28G35    29.64S WCI   6
LAUREL           N/A     21   6  52 W5        29.69S
$$

REGIONAL REPORTS...DAKOTAS

CITY           SKY/WX    TMP DP  RH WIND       PRES   REMARKS
WILLISTON      PTCLDY     4   1  88 N3        29.71R
MINOT          CLOUDY    15  11  83 NW7       29.69S WCI   5
DICKINSON      MOCLDY    17  14  88 NW5       29.62S
BEACH            N/A    N/A N/A N/A MISG        N/A
CROSBY           N/A      9   9 100 CALM      29.72S
TIOGA            N/A      1   1 100 NW3       29.69R FOG
WATFORD CITY     N/A     10   9  92 NW3       29.70R
BISMARCK       CLOUDY    28  24  85 SW12      29.65F WCI  18
GRAND FORKS    CLOUDY    18   9  68 N12       29.74S WCI   5
FARGO          PTCLDY    24  20  84 SW3       29.71F
BUFFALO SD       N/A     19  16  88 W9        29.60S WCI   8
RAPID CITY     CLEAR     19  16  88 NW9       29.72R WCI   8
$$

REGIONAL REPORTS...WYOMING/IDAHO/WASHINGTON

CITY           SKY/WX    TMP DP  RH WIND       PRES   REMARKS
GILLETTE       LGT SNOW  22  18  85 W8        29.69S FOG     WCI  12
SHERIDAN       CLOUDY    20  14  77 SE14      29.70R WCI   7
BUFFALO WY     CLEAR     20  14  77 N3        29.68R
CODY           CLEAR     22   1  40 W21G32    29.67  WCI   6
YELLOWSTONE LA   N/A     -1  -4  87 CALM      29.75R
IDAHO FALLS    CLEAR     17  12  80 S10       29.92S WCI   5
SALMON         CLOUDY    25  12  58 SW7       29.87S WCI  17
BOISE          CLOUDY    30  17  58 SE7       29.99F WCI  23
SPOKANE        CLOUDY    31  23  72 S9        29.85F WCI  23
$$

REGIONAL REPORTS...ALBERTA

CITY           SKY/WX    TMP DP  RH WIND       PRES   REMARKS
EDMONTON       LGT SNOW  19  16  86 NW12      29.68R WCI   7
CALGARY        LGT SNOW  21  18  86 N9        29.61R FOG     WCI  11
LETHBRIDGE     CLOUDY    30  12  47 W26G37    29.57R WCI  16
MEDICINE HAT   CLOUDY    21  18  86 NE5       29.59S
WATERTON GATE    N/A     25  10  54 SW25G36     N/A  WCI   9
MILK RIVER       N/A     28  16  59 W16         N/A  WCI  17
ONEFOUR          N/A     23  18  80 NW10        N/A  WCI  12
$$

REGIONAL REPORTS...SASKATCHEWAN

CITY           SKY/WX    TMP DP  RH WIND       PRES   REMARKS
SWIFT CURRENT  FLURRIES  16  12  86 S5        29.59S
REGINA         PTCLDY     7   3  85 S5        29.68R
SASKATOON      FLURRIES  16  12  86 SW6       29.65S WCI   7
VAL MARIE        N/A     12   9  85 SW3         N/A
ROCKGLEN         N/A      5   1  85 S5          N/A
ASSINIBOIA       N/A     19  16  86 NW8         N/A  WCI   9
$$




USA.gov is the U.S. government's official web portal to all federal, state and local government web resources and services.